Regional Weather Roundup
Issued by NWS Charleston, SC

Current Version | Previous Version | Graphics & Text | Print | Product List | Glossary On
Versions: 1 2 3 4 5 6 7 8 9 10 11 12 13 14 15 16 17 18 19 20 21 22 23 24 25 26 27 28 29 30 31 32 33 34 35 36 37 38 39 40 41 42 43 44 45 46 47 48 49 50
000
ASUS42 KCHS 250326
RWRCHS

REGIONAL WEATHER ROUNDUP
NATIONAL WEATHER SERVICE CHARLESTON SC
1100 PM EDT FRI APR 24 2015

NOTE: "FAIR" INDICATES FEW OR NO CLOUDS BELOW 12,000 FEET WITH NO
SIGNIFICANT WEATHER AND/OR OBSTRUCTIONS TO VISIBILITY.

NOT ALL STATIONS ARE QUALITY CONTROLLED BY THE NATIONAL
WEATHER SERVICE. USE DATA WITH CAUTION...ESPECIALLY
DEWPOINT OBSERVATIONS.

SCZ027-030-031-034>040-042>050-250400-
...SOUTHEAST SOUTH CAROLINA...

CITY           SKY/WX    TMP DP  RH WIND       PRES   REMARKS
N CHARLESTON   MOCLDY    59  46  62 CALM      30.01F
WATERFRONT PRK   N/A     63 N/A N/A S6          N/A
MOUNT PLEASANT FAIR      54  48  82 MISG      30.01F
PINOPOLIS      NOT AVBL
MONCKS CORNER  FAIR      55  50  82 CALM      30.01F
SUMMERVILLE    FAIR      57  50  77 CALM      30.01F
BEAUFORT MCAS  CLOUDY    64  51  62 S3        30.01S
BEAUFORT ARPT  FAIR      63  50  63 CALM      30.01S
HILTON HEAD IS CLOUDY    64  46  52 SE3       30.01F
WALTERBORO     CLOUDY    59  46  63 S5        30.01S
ALLENDALE      FAIR      63  46  55 S6        29.99S

...SOUTHERN MIDLANDS AND PEE DEE...

CITY           SKY/WX    TMP DP  RH WIND       PRES   REMARKS
GEORGETOWN     NOT AVBL
KINGSTREE      NOT AVBL
ORANGEBURG     PTCLDY    58  46  64 S6        30.00F
BARNWELL       FAIR      63  48  59 S5        30.00S
AIKEN          FAIR      59  39  47 SE5       30.00F
MANNING        FAIR      61  36  39 S5        30.00F
COLUMBIA       PTCLDY    58  45  62 CALM      29.98S
SUMTER         MOCLDY    58  43  58 S3        29.97F
FLORENCE       PTCLDY    57  43  59 CALM      30.00S
MYRTLE BEACH   PTCLDY    59  41  51 SW5       30.04S
N MYRTLE BEACH PTCLDY    59  45  59 W5        30.02S

$$

GAZ063-065-086>088-099>101-113>116-118-119-134>141-150-250400-
...SOUTHEAST GEORGIA...

CITY           SKY/WX    TMP DP  RH WIND       PRES   REMARKS
SAVANNAH ARPT  CLOUDY    64  46  52 SE6       30.01S
HUNTER AAF     CLOUDY    64  50  60 SE2       29.99R
FORT STEWART   CLOUDY    62  52  69 CALM      29.99R
STATESBORO       N/A     62  49  62 S3        30.00S
SYLVANIA       MOCLDY    62  49  63 CALM      30.01S
CLAXTON        FAIR      63  52  67 CALM      30.00S

...CSRA...CENTRAL AND FAR SOUTHEAST GEORGIA...

CITY           SKY/WX    TMP DP  RH WIND       PRES   REMARKS
THOMSON        CLOUDY    66  54  66 CALM      30.00F
AUGUSTA-BUSH   CLOUDY    61  50  67 CALM      29.97S
AUGUSTA-DANIEL CLOUDY    67  41  38 SE5       29.98S
SWAINSBORO     NOT AVBL
VIDALIA        CLOUDY    64  52  63 S6        30.00R
EASTMAN        FAIR      69  56  64 S8        30.00F
HAZLEHURST     FAIR      67  53  61 S7        29.99R
ALMA           MOCLDY    65  51  60 SE7       29.99R
WAYCROSS       MOCLDY    68  55  63 SE3       29.99F
JESUP          FAIR      64  55  72 CALM      30.00S
BAXLEY         FAIR      66  52  59 S5        29.99S
BRUNSWICK      CLOUDY    64  55  72 E3        30.00R
SAINT SIMONS   MOCLDY    67  56  67 E8        30.00F

$$

SCZ027-028-034-036>038-045-046-048>050-GAZ119-141-250400-
...LAKE AND SUPPLEMENTAL COASTAL OBSERVATIONS...

STATION/POSITION TIME  TEMP    WIND        PRES    WAVE   SWELL
                       AIR SEA DIR/SP/G            HT/PER HT/PER/DIR
                 (UTC) (F)     (DEG/KT/KT) (MB)    (FT/S) (FT/S/D)
UPR LAKE MARION  NOT AVBL
WINYAH BAY       0245   58     250/  1     1016.0S
LAKE MURRAY      0200   64     100/  2/  2 1014.9S
ACE BASIN NERRS  NOT AVBL
FORT PULASKI     0300   65 71  120/  4/  6 1016.4F
SAPELO ISLAND    0300   66      90/  5     1016.0S

$$

ANZ835-935-AMZ111-154-330-350-352-354-370-450-454-472-250400-
...C-MAN AND BUOY OBSERVATIONS...

STATION/POSITION TIME  TEMP    WIND        PRES    WAVE   SWELL
                       AIR SEA DIR/SP/G            HT/PER HT/PER/DIR
                 (UTC) (F)     (DEG/KT/KT) (MB)    (FT/S) (FT/S/D)
BUOY 41004       0250   67 71  180/  6/  8 1016.5F   3/ 9   3/ 9
BUOY 41008       0250   67 69  110/ 12/ 14 1015.9F   3/ 7   3/ 70/ 7
FOLLY BEACH CMAN 0300   65     180/ 10/ 12 1016.3F
CAPERS NEARSHORE 0208   65     190/ 12/ 14   N/A
FRIPP NEARSHORE  0200   67     180/ 12/ 14 1016.4S


STATION/POSITION TIME  TEMP    WIND        PRES    WAVE   SWELL
                       AIR SEA DIR/SP/G            HT/PER HT/PER/DIR
                 (UTC) (F)     (DEG/KT/KT) (MB)    (FT/S) (FT/S/D)
5E ST. MARYS GA  0221      69                N/A     4/ 7   2/ 90/14
FRYING PAN BUOY  0250   65 71  220/ 10/ 12 1017.2F   4/ 8   3/ 80/ 8
BUOY 41025       0250   62 73  230/  8/ 12 1015.5F   5/ 9   5/ 60/ 9
CAPE LOOKOUT NC  0300   62     240/  8/ 10 1015.7R
BUOY 41002       0250   63 70   10/  8/ 12 1017.2S   7/ 8   7/350/ 8
BUOY 41010       0220   75 78   60/ 12/ 14 1016.2R
ST AUGUSTINE FL  0300   72 67  110/ 13/ 13 1015.8F


$$


USA.gov is the U.S. government's official web portal to all federal, state and local government web resources and services.